Location: Blackrock Ranger Station
(36.0936°N, 118.2611°W)
Time: 02:26:03
(UTC-08:00)

Oscar 19 - Visible Passes

Search period start: 07 February 2026 00:00
Search period end: 17 February 2026 00:00
Orbit: 770 x 786 km, 98.9° (Epoch: 6 February)

Date Brightness Start Highest point End Pass type
(mag) Time Alt. Az. Time Alt. Az. Time Alt. Az.
7 Feb 13.5 05:48:31 10° NE 05:52:22 21° E 05:56:10 10° SE visible
7 Feb 12.4 18:40:32 10° SSW 18:45:12 34° W 18:49:53 10° NNW visible
8 Feb 10.9 18:06:58 10° S 18:12:07 75° WSW 18:17:19 10° NNW visible
9 Feb 13.7 19:15:31 10° SW 19:18:39 16° W 19:21:48 10° NW visible
10 Feb 13.5 05:48:45 10° NE 05:52:35 21° E 05:56:22 10° SE visible
10 Feb 12.4 18:40:45 10° SSW 18:45:25 34° W 18:50:07 10° NNW visible
11 Feb 10.9 18:07:11 10° S 18:12:20 75° WSW 18:17:32 10° NNW visible
12 Feb 13.7 19:15:42 10° SW 19:18:51 16° W 19:22:02 10° NW visible
13 Feb 13.6 05:48:59 10° NE 05:52:47 21° E 05:56:33 10° SE visible
13 Feb 12.4 18:40:58 10° SSW 18:45:38 35° W 18:50:21 10° NNW visible
14 Feb 10.9 18:07:24 10° S 18:12:34 76° WSW 18:17:44 10° NNW visible
15 Feb 13.7 19:15:54 10° SW 19:19:04 16° W 19:22:16 10° NW visible
16 Feb 13.6 05:49:13 10° NE 05:53:00 21° E 05:56:44 10° SE visible
16 Feb 12.4 18:41:10 10° SSW 18:45:50 35° W 18:50:34 10° NNW visible
